Location: Unspecified
(0.0000°N, 0.0000°E)
Time: 20:23:32
(UTC+01:00)

CZ-4B DEB - Visible Passes

Search period start: 21 December 2014 00:00
Search period end: 31 December 2014 00:00
Orbit: 507 x 519 km, 97.5° (Epoch: 21 December)

Date Brightness Start Highest point End Pass type
(mag) Time Alt. Az. Time Alt. Az. Time Alt. Az.
22 Dec 6.4 20:35:31 10° SW 20:37:29 14° WSW 20:39:27 10° WNW visible
23 Dec 5.6 20:18:46 10° SSW 20:21:48 24° WSW 20:24:51 10° NW visible
24 Dec 4.4 20:02:30 10° S 20:06:03 44° WSW 20:09:35 10° NNW visible
25 Dec 3.2 19:46:29 10° S 19:50:12 86° W 19:53:54 10° NNW visible
26 Dec 3.3 19:30:41 10° SSE 19:34:16 49° E 19:37:51 10° N visible
28 Dec 6.4 20:33:44 10° SW 20:35:53 15° WSW 20:38:02 10° WNW visible
29 Dec 5.5 20:16:35 10° SSW 20:19:43 26° WSW 20:22:52 10° NW visible
30 Dec 4.2 19:59:53 10° S 20:03:29 49° W 20:07:04 10° NNW visible
